Location: Newark
(40.1631°N, 15.6720°E)
Time: 12:43:41
(UTC+00:00)

N. Korean satellite - Visible Passes

Search period start: 06 December 2019 00:00
Search period end: 16 December 2019 00:00
Orbit: 456 x 506 km, 97.2° (Epoch: 05 December)

Date Brightness Start Highest point End Pass type
(mag) Time Alt. Az. Time Alt. Az. Time Alt. Az.
06 Dec 6.8 05:11:41 10° N 05:15:06 45° WNW 05:18:27 10° SSW visible
07 Dec 6.6 04:46:09 10° NNE 04:49:43 77° E 04:53:12 10° S visible
07 Dec 9.6 16:54:52 10° SW 16:57:34 19° W 17:00:17 10° NW visible
08 Dec 8.3 04:21:00 10° NNE 04:24:14 33° E 04:27:25 10° SSE visible
08 Dec 8.2 16:28:33 10° SSW 16:32:02 39° W 16:35:32 10° NNW visible
09 Dec 9.7 03:56:25 10° NE 03:58:39 16° E 04:00:51 10° SE visible
09 Dec 7.4 05:29:03 10° NNW 05:32:05 27° WNW 05:35:03 10° SW visible
09 Dec 6.7 16:02:52 10° SSE 16:06:35 87° W 16:10:18 10° NNW visible
10 Dec 6.5 05:03:16 10° N 05:06:45 59° WNW 05:10:10 10° SSW visible
10 Dec 10.1 17:13:24 10° WSW 17:14:47 12° W 17:16:11 10° WNW visible
11 Dec 7.1 04:37:50 10° NNE 04:41:20 58° E 04:44:44 10° S visible
11 Dec 9.3 16:46:09 10° SSW 16:49:11 24° W 16:52:13 10° NW visible
12 Dec 8.8 04:12:50 10° NE 04:15:49 26° E 04:18:44 10° SSE visible
12 Dec 7.7 16:20:04 10° S 16:23:40 50° W 16:27:16 10° NNW visible
13 Dec 9.9 03:48:41 10° ENE 03:50:11 12° E 03:51:42 10° ESE visible
13 Dec 7.1 05:20:32 10° N 05:23:43 34° WNW 05:26:52 10° SW visible
14 Dec 6.3 04:54:52 10° N 04:58:22 78° WNW 05:01:48 10° SSW visible
14 Dec 9.9 17:04:13 10° SW 17:06:20 15° W 17:08:29 10° WNW visible
15 Dec 7.7 04:29:33 10° NNE 04:32:55 43° E 04:36:12 10° S visible
15 Dec 8.8 16:37:30 10° SSW 16:40:46 29° W 16:44:02 10° NW visible
